Flag for Switzerland Weather past 2 weeks in Aarau, Aargau, Switzerland

Now
65 °F

Mild.


Feels Like: 65 °F
Forecast: 51 / 76 °F
Wind: 3 mph from Southwest

Location: Wynau

Current Time: Aug 27, 2014 at 11:36:41 AM

Latest Report: Aug 27, 2014 at 10:00 AM


Visibility: N/A

Pressure: 29.97 "Hg

Humidity: 81%

Dew point: 59 °F

Location of AarauLocation

Historic Weather in Aarau — Graph

°F

Aarau temperature yesterday

Maximum temperature yesterday: 67 °F (at 7:00 PM)
Minimum temperature yesterday: 56 °F (at 3:00 AM)
Average temperature yesterday: 61 °F

Past Weeks' High & Low Weather Summary

 TemperatureHumidityPressure
High76 °F (Aug 18, 4:00 PM)100% (Aug 17, 12:00 AM)30.23 "Hg (Aug 17, 12:00 AM)
Low46 °F (Aug 17, 4:00 AM)36% (Aug 18, 4:00 PM)29.70 "Hg (Aug 13, 9:00 AM)
Average59 °F78%29.99 "Hg
* Reported Aug 12 10:00 AM — Aug 27 10:00 AM, Aarau, Weather by CustomWeather, © 2014

Note: Actual official high and low records may vary slightly from our data, if they occured in-between our weather recording intervals... More about our weather records

Advertising

Aarau weather history for previous 24 hours

 ConditionsComfort  
Time TempWeatherWind HumidityBarometerVisibility
10:00 AM
Aug 27
65 °FMild.3 mph81%29.97 "HgN/A
9:00 AM62 °FCool.3 mph89%29.97 "HgN/A
8:00 AM60 °FCool.2 mph89%29.95 "HgN/A
7:00 AM58 °FCool.2 mph93%29.94 "HgN/A
6:00 AM59 °FCool.2 mph91%29.92 "HgN/A
5:00 AM60 °FCool.2 mph93%29.90 "HgN/A
4:00 AM59 °FCool.2 mph93%29.90 "HgN/A
3:00 AM59 °FCool.2 mph95%29.90 "HgN/A
2:00 AM60 °FCool.3 mph92%29.88 "HgN/A
1:00 AM60 °FCool.3 mph95%29.88 "HgN/A
12:00 AM61 °FCool.1 mph87%29.86 "HgN/A
11:00 PM
Aug 26
60 °FCool.2 mph92%29.85 "HgN/A
10:00 PM60 °FCool.2 mph94%29.85 "HgN/A
9:00 PM62 °FCool.2 mph87%29.83 "HgN/A
8:00 PM64 °FMild.3 mph85%29.80 "HgN/A
7:00 PM67 °FMild.5 mph81%29.78 "HgN/A
6:00 PM66 °FMild.3 mph87%29.78 "HgN/A
5:00 PM65 °FMild.5 mph85%29.78 "HgN/A
4:00 PM64 °FMild.3 mph88%29.79 "HgN/A
3:00 PM63 °FMild.5 mph91%29.81 "HgN/A
2:00 PM63 °FMild.7 mph88%29.82 "HgN/A
1:00 PM62 °FCool.7 mph89%29.82 "HgN/A
12:00 PM62 °FCool.10 mph88%29.82 "HgN/A
11:00 AM62 °FCool.10 mph83%29.81 "HgN/A
Weather by CustomWeather, © 2014

See weather overviewHow to use our weather pages